[ hide orbit diagram ]
For accurate long-term ephemerides, please instead use our Horizons system.This orbit viewer was implemented using two-body methods, and hence should not be used for determining accurate long-term trajectories (over several years or decades) or planetary encounter circumstances.
Orbital Elements at Epoch 2459000.5 (2020-May-31.0) TDB
Reference: JPL 20 (heliocentric ecliptic J2000)
Element | Value | Uncertainty (1-sigma) | Units |
e | .1544114163351722 | 3.3605e-08 | |
a | 2.316450932483117 | 9.0341e-09 | au |
q | 1.958764463127468 | 7.7772e-08 | au |
i | 2.864988258341273 | 3.5553e-06 | deg |
node | 81.29151267305082 | 8.4866e-05 | deg |
peri | 31.49773419524867 | 8.6045e-05 | deg |
M | 90.08091424115676 | 1.3908e-05 | deg |
tp | 2458678.271930564143 (2019-Jul-13.77193056) | 4.9078e-05 | TDB |
period | 1287.754525740688 3.53 | 7.5333e-06 2.063e-08 | d yr |
n | .2795563850128471 | 1.6354e-09 | deg/d |
Q | 2.674137401838765 | 1.0429e-08 | au |
|
| | Orbit Determination Parameters
Additional Information
|
[ show covariance matrix ]
Physical Parameter Table
Parameter |
Symbol |
Value |
Units |
Sigma |
Reference |
Notes |
absolute magnitude |
H |
16.84 |
|
n/a |
E2021B55 |
|
|
129595 Vand | Discovered 1997 Nov. 2 by J. Ticha and M. Tichy at Klet. |
Vladimír Vand (1911-1968) started his career with the study of variable stars and spectroscopy in Prague. Later he invented a calculating machine for x-ray analysis of crystal structures, contributed to the theory of viscosity of solutions and cooperated with Francis Crick on the structure of double helix DNA molecules. |
NOTE: some special characters may not display properly (any characters within {} are an attempt to place the proper accent above a character) |
Reference: 20081113/MPCPages.arc | Last Updated: 2008-11-17 |
|
[ show close-approach data ]
|